Pioneer Knutsen — LMIK — position and weather

sailwx.info

Track history (hours):
 
Tides and Currents Weather Stations Pressure Air Temp Water Temp Dewpoint Dewpoint Depression Visibility Wind Speed Wind Dir Waves Ship Positions

Pioneer Knutsen

Last reported at 2014-Jul-22 21:32 UTC. Time now 2014-Jul-25 20:40 UTC.
Position N 64°45' E 010°58'.

Length 70 m; draft 3.6 m.

Type: Tanker. MMSI: 259393000.

Date/timePositionNaut miles runAvg speedWind from/ knotsBaromVisibWave heightAir tempDewpointWater temp
2014-Jul-22 21:32N 64°45' E 010°58'1010.3
2014-Jul-22 20:33N 64°52' E 011°15'27 1.3
2014-Jul-22 00:24N 65°13' E 011°53'911.0
2014-Jul-21 23:33N 65°04' E 011°45'1010.3
2014-Jul-21 22:33N 64°57' E 011°28'1010.2
2014-Jul-21 21:33N 64°50' E 011°11'  
2014-Jul-18 20:33N 64°47' E 011°04'1111.3
2014-Jul-18 19:33N 64°55' E 011°23'8 0.4
2014-Jul-17 22:32N 65°00' E 011°38'1010.3
2014-Jul-17 21:33N 64°54' E 011°20'  
2014-Jul-14 06:33N 60°26' E 005°02'5710.9
2014-Jul-14 01:19N 59°29' E 005°13'911.2
2014-Jul-14 00:33N 59°21' E 005°19'1212.3
2014-Jul-13 23:33N 59°09' E 005°23'1111.2
2014-Jul-13 22:33N 58°60' E 005°33'4 4.0
2014-Jul-13 21:32N 58°55' E 005°35'0 0.0
2014-Jul-13 20:28N 58°55' E 005°35'0 0.0
2014-Jul-13 19:31N 58°55' E 005°35'0 0.0
2014-Jul-13 18:33N 58°55' E 005°35'0 0.0
2014-Jul-13 17:33N 58°55' E 005°35'0 0.0
2014-Jul-13 16:32N 58°55' E 005°35'0 0.0
2014-Jul-13 15:32N 58°55' E 005°35'1 1.0
2014-Jul-13 14:34N 58°56' E 005°34'1312.5
2014-Jul-13 13:33N 59°08' E 005°24'1212.3
2014-Jul-13 12:34N 59°20' E 005°19'5811.6
2014-Jul-13 07:31N 60°18' E 005°12'1211.8
2014-Jul-13 06:32N 60°28' E 004°60'  
Track history (hours):
 
Tides and Currents Weather Stations Pressure Air Temp Water Temp Dewpoint Dewpoint Depression Visibility Wind Speed Wind Dir Waves Ship Positions

Pioneer Knutsen

Last reported at 2014-Jul-22 21:32 UTC. Time now 2014-Jul-25 20:40 UTC.
Position N 64°45' E 010°58'.

Length 70 m; draft 3.6 m.

Type: Tanker. MMSI: 259393000.

Date/timePositionNaut miles runAvg speedWind from/ knotsBaromVisibWave heightAir tempDewpointWater temp
2014-Jul-22 21:32N 64°45' E 010°58'1010.3
2014-Jul-22 20:33N 64°52' E 011°15'27 1.3
2014-Jul-22 00:24N 65°13' E 011°53'911.0
2014-Jul-21 23:33N 65°04' E 011°45'1010.3
2014-Jul-21 22:33N 64°57' E 011°28'1010.2
2014-Jul-21 21:33N 64°50' E 011°11'  
2014-Jul-18 20:33N 64°47' E 011°04'1111.3
2014-Jul-18 19:33N 64°55' E 011°23'8 0.4
2014-Jul-17 22:32N 65°00' E 011°38'1010.3
2014-Jul-17 21:33N 64°54' E 011°20'  
2014-Jul-14 06:33N 60°26' E 005°02'5710.9
2014-Jul-14 01:19N 59°29' E 005°13'911.2
2014-Jul-14 00:33N 59°21' E 005°19'1212.3
2014-Jul-13 23:33N 59°09' E 005°23'1111.2
2014-Jul-13 22:33N 58°60' E 005°33'4 4.0
2014-Jul-13 21:32N 58°55' E 005°35'0 0.0
2014-Jul-13 20:28N 58°55' E 005°35'0 0.0
2014-Jul-13 19:31N 58°55' E 005°35'0 0.0
2014-Jul-13 18:33N 58°55' E 005°35'0 0.0
2014-Jul-13 17:33N 58°55' E 005°35'0 0.0
2014-Jul-13 16:32N 58°55' E 005°35'0 0.0
2014-Jul-13 15:32N 58°55' E 005°35'1 1.0
2014-Jul-13 14:34N 58°56' E 005°34'1312.5
2014-Jul-13 13:33N 59°08' E 005°24'1212.3
2014-Jul-13 12:34N 59°20' E 005°19'5811.6
2014-Jul-13 07:31N 60°18' E 005°12'1211.8
2014-Jul-13 06:32N 60°28' E 004°60'  

Dump ship's entire track history